EW6390 Weather Reports


time (UTC)temp
C
wind
direction
speed
KPH
gust
KPH
rain 1hr
cm
rain 24hr
cm
rain mn
cm
humidity
%
barometer
mb
20260906044306 22 229 0.0 0.0 0.00 0.00 0.00 88 1012.6
20260906043806 23 229 0.0 1.6 0.00 0.00 0.00 88 1012.6
20260906043306 23 229 0.0 1.6 0.00 0.00 0.00 88 1012.6
20260906042806 23 229 0.0 1.6 0.00 0.00 0.00 88 1012.6
20260906042307 23 229 0.0 0.0 0.00 0.00 0.00 88 1012.6
20260906041806 23 229 0.0 0.0 0.00 0.00 0.00 88 1012.6
20260906041306 23 229 0.0 0.0 0.00 0.00 0.00 88 1012.5
20260906040806 23 229 0.0 0.0 0.00 0.00 0.00 88 1012.5
20260906040305 23 229 0.0 0.0 0.00 0.00 0.00 88 1012.5
20260906035807 23 229 0.0 0.0 0.00 0.00 0.00 88 1012.5
20260906035306 23 229 0.0 0.0 0.00 0.00 0.00 87 1012.6
20260906034807 23 229 0.0 0.0 0.00 0.00 0.00 87 1012.8
20260906034305 23 229 0.0 1.6 0.00 0.00 0.00 87 1012.8
20260906033806 23 229 0.0 1.6 0.00 0.00 0.00 87 1012.8
20260906033305 23 229 0.0 0.0 0.00 0.00 0.00 87 1012.9
20260906032807 23 229 0.0 0.0 0.00 0.00 0.00 86 1012.8
20260906032306 23 229 0.0 0.0 0.00 0.00 0.00 86 1012.8
20260906031808 23 229 0.0 0.0 0.00 0.00 0.00 86 1012.9
20260906031804 23 229 0.0 0.0 0.00 0.00 0.00 87 1012.8
20260906030804 23 229 0.0 0.0 0.00 0.00 0.00 86 1012.7
20260906030302 23 229 0.0 0.0 0.00 0.00 0.00 86 1012.7
20260906025802 23 229 0.0 0.0 0.00 0.00 0.00 86 1012.7
20260906025306 23 229 0.0 0.0 0.00 0.00 0.00 85 1012.8
20260906024804 23 229 0.0 0.0 0.00 0.00 0.00 85 1012.8
20260906024302 23 229 0.0 0.0 0.00 0.00 0.00 85 1012.7
20260906023802 23 229 0.0 0.0 0.00 0.00 0.00 85 1012.8
20260906023303 23 229 0.0 0.0 0.00 0.00 0.00 84 1012.8
20260906022801 24 229 0.0 0.0 0.00 0.00 0.00 83 1012.8
20260906022301 24 229 0.0 0.0 0.00 0.00 0.00 83 1012.7
20260906021801 24 229 0.0 0.0 0.00 0.00 0.00 83 1012.7
20260906021301 24 229 0.0 1.6 0.00 0.00 0.00 83 1012.6
20260906020800 24 229 0.0 1.6 0.00 0.00 0.00 83 1012.7
20260906020300 24 229 0.0 0.0 0.00 0.00 0.00 83 1012.7
20260906015800 24 212 0.0 0.0 0.00 0.00 0.00 82 1012.6
20260906015257 24 212 0.0 4.8 0.00 0.00 0.00 82 1012.6
20260906014757 24 229 0.0 4.8 0.00 0.00 0.00 81 1012.5
20260906014257 24 226 0.0 0.0 0.00 0.00 0.00 81 1012.3
20260906013756 24 226 0.0 0.0 0.00 0.00 0.00 80 1012.3
20260906013255 24 226 0.0 0.0 0.00 0.00 0.00 80 1012.3
20260906012754 24 225 0.0 0.0 0.00 0.00 0.00 80 1012.3
20260906012300 24 225 0.0 0.0 0.00 0.00 0.00 81 1012.2
20260906012254 24 225 0.0 0.0 0.00 0.00 0.00 80 1012.4
20260906011754 24 225 0.0 0.0 0.00 0.00 0.00 80 1012.2
20260906010753 24 225 0.0 0.0 0.00 0.00 0.00 81 1012.1
20260906010254 24 226 0.0 1.6 0.00 0.00 0.00 81 1012.1
20260906005755 24 225 0.0 1.6 0.00 0.00 0.00 80 1011.9
20260906005253 24 225 0.0 0.0 0.00 0.00 0.00 80 1011.8
20260906004754 25 226 0.0 0.0 0.00 0.00 0.00 79 1011.9
20260906004254 25 226 0.0 0.0 0.00 0.00 0.00 79 1011.9
20260906003752 25 226 0.0 0.0 0.00 0.00 0.00 79 1011.8
20260906003252 25 226 0.0 0.0 0.00 0.00 0.00 78 1011.7
20260906002752 25 225 0.0 0.0 0.00 0.00 0.00 77 1011.7
20260906002251 25 225 0.0 0.0 0.00 0.00 0.00 77 1011.8
20260906001751 25 226 0.0 0.0 0.00 0.00 0.00 77 1011.7
20260906001251 25 226 0.0 0.0 0.00 0.00 0.00 76 1011.6
20260906000756 26 225 0.0 0.0 0.00 0.00 0.00 74 1011.6
20260906000752 26 225 0.0 0.0 0.00 0.00 0.00 75 1011.6
20260905235752 26 226 0.0 0.0 0.00 0.00 0.00 73 1011.5
20260905235249 26 225 0.0 0.0 0.00 0.00 0.00 71 1011.5
20260905234754 26 226 0.0 1.6 0.00 0.00 0.00 70 1011.4
20260905234750 26 225 0.0 1.6 0.00 0.00 0.00 71 1011.5
20260905233758 27 225 0.0 0.0 0.00 0.00 0.00 69 1011.1
20260905233749 26 226 0.0 0.0 0.00 0.00 0.00 69 1011.2
20260905233252 26 226 0.0 0.0 0.00 0.00 0.00 69 1011.2
20260905232908 27 226 0.0 0.0 0.00 0.00 0.00 68 1011.2
20260905231750 27 225 0.0 0.0 0.00 0.00 0.00 68 1011.3
20260905231249 27 226 0.0 0.0 0.00 0.00 0.00 68 1011.3
20260905230756 27 226 0.0 0.0 0.00 0.00 0.00 70 1011.4
20260905230748 27 226 0.0 0.0 0.00 0.00 0.00 67 1011.3
20260905230248 27 226 0.0 0.0 0.00 0.00 0.00 67 1011.4
20260905225748 27 225 0.0 0.0 0.00 0.00 0.00 69 1011.4
20260905224748 27 226 0.0 1.6 0.00 0.00 0.00 70 1011.5
20260905224246 27 225 0.0 1.6 0.00 0.00 0.00 72 1011.5
20260905223748 27 226 0.0 0.0 0.00 0.00 0.00 71 1011.5
20260905223248 27 226 0.0 0.0 0.00 0.00 0.00 71 1011.6
20260905222747 27 226 0.0 0.0 0.00 0.00 0.00 71 1011.5
20260905222246 27 225 0.0 0.0 0.00 0.00 0.00 70 1011.4
20260905221746 27 226 0.0 0.0 0.00 0.00 0.00 70 1011.4
20260905221245 27 226 0.0 1.6 0.00 0.00 0.00 70 1011.5
20260905220746 27 226 0.0 1.6 0.00 0.00 0.00 70 1011.7
20260905220246 27 225 0.0 0.0 0.00 0.00 0.00 71 1011.6
20260905215745 27 226 0.0 0.0 0.00 0.00 0.00 71 1011.5
20260905215246 27 226 0.0 1.6 0.00 0.00 0.00 71 1011.6
20260905214745 27 226 0.0 1.6 0.00 0.00 0.00 71 1011.6
20260905214251 27 225 0.0 0.0 0.00 0.00 0.00 70 1011.6
20260905214246 27 226 0.0 0.0 0.00 0.00 0.00 70 1011.7
20260905213244 27 225 0.0 0.0 0.00 0.00 0.00 70 1011.7
20260905212752 27 225 0.0 0.0 0.00 0.00 0.00 70 1012.2
20260905212745 27 226 0.0 0.0 0.00 0.00 0.00 70 1011.9
20260905211741 27 225 0.0 0.0 0.00 0.00 0.00 69 1012.2
20260905211248 27 131 0.0 0.0 0.00 0.00 0.00 70 1012.4
20260905211243 27 226 0.0 3.2 0.00 0.00 0.00 69 1012.3
20260905210741 27 226 0.0 3.2 0.00 0.00 0.00 69 1012.4
20260905205742 27 131 0.0 0.0 0.00 0.00 0.00 70 1012.3
20260905205241 27 131 0.0 0.0 0.00 0.00 0.00 70 1012.4
20260905204741 27 131 0.0 1.6 0.00 0.00 0.00 71 1012.2
20260905204242 27 131 0.0 1.6 0.00 0.00 0.00 73 1012.3
20260905203740 26 131 0.0 1.6 0.00 0.00 0.00 71 1012.2
20260905203238 26 263 0.0 1.6 0.00 0.00 0.00 70 1011.9
20260905202736 27 263 0.0 3.2 0.00 0.00 0.00 71 1011.9
20260905202237 27 263 0.0 3.2 0.00 0.00 0.00 71 1011.9
20260905201742 27 292 1.6 4.8 0.00 0.00 0.00 73 1012.3
20260905201737 27 292 1.6 4.8 0.00 0.00 0.00 72 1012.1
20260905200736 27 274 0.0 3.2 0.00 0.00 0.00 73 1012.2
20260905200238 27 239 0.0 4.8 0.00 0.00 0.00 73 1011.8
20260905195741 27 239 1.6 4.8 0.00 0.00 0.00 73 1011.8
20260905195736 27 239 0.0 4.8 0.00 0.00 0.00 72 1012.1
20260905194740 27 158 0.0 1.6 0.00 0.00 0.00 72 1011.8
20260905194735 27 179 0.0 0.0 0.00 0.00 0.00 72 1012.2
20260905193737 27 308 0.0 1.6 0.00 0.00 0.00 70 1011.8
20260905193236 28 308 1.6 4.8 0.00 0.00 0.00 68 1012.0
20260905192735 28 308 3.2 6.4 0.00 0.00 0.00 65 1012.4
20260905192233 29 306 4.8 9.7 0.00 0.00 0.00 58 1012.8
20260905191734 30 326 4.8 12.9 0.00 0.00 0.00 53 1012.8
20260905191234 31 316 3.2 12.9 0.00 0.00 0.00 50 1012.9
20260905190732 32 283 1.6 8.0 0.00 0.00 0.00 54 1012.6
20260905190230 32 94 0.0 1.6 0.00 0.00 0.00 53 1012.1
20260905185728 33 94 0.0 1.6 0.00 0.00 0.00 53 1012.0
20260905185230 33 94 0.0 0.0 0.00 0.00 0.00 53 1011.9
20260905184729 33 94 0.0 0.0 0.00 0.00 0.00 52 1011.9
20260905184227 34 94 0.0 0.0 0.00 0.00 0.00 51 1011.9
20260905183728 34 94 0.0 0.0 0.00 0.00 0.00 50 1011.8
20260905183226 35 94 0.0 1.6 0.00 0.00 0.00 49 1011.6
20260905182727 35 95 0.0 1.6 0.00 0.00 0.00 47 1011.6
20260905182225 35 94 0.0 1.6 0.00 0.00 0.00 45 1012.0
20260905181724 36 94 0.0 1.6 0.00 0.00 0.00 45 1011.9
20260905181222 36 94 0.0 0.0 0.00 0.00 0.00 45 1012.0
20260905180722 37 95 0.0 3.2 0.00 0.00 0.00 41 1012.0
20260905180226 37 210 0.0 1.6 0.00 0.00 0.00 38 1012.1
20260905180222 37 117 0.0 3.2 0.00 0.00 0.00 43 1012.0
20260905175224 38 227 0.0 1.6 0.00 0.00 0.00 39 1012.2
20260905174729 38 229 0.0 3.2 0.00 0.00 0.00 42 1012.3
20260905174724 38 141 0.0 1.6 0.00 0.00 0.00 40 1012.2
20260905173724 38 229 1.6 4.8 0.00 0.00 0.00 38 1012.4
20260905173223 38 324 0.0 4.8 0.00 0.00 0.00 40 1012.5
20260905172724 38 123 0.0 4.8 0.00 0.00 0.00 41 1012.6
20260905172223 37 89 1.6 4.8 0.00 0.00 0.00 43 1012.6
20260905171722 37 141 1.6 6.4 0.00 0.00 0.00 42 1012.7
20260905171228 38 134 0.0 4.8 0.00 0.00 0.00 42 1012.8
20260905171223 38 122 1.6 6.4 0.00 0.00 0.00 40 1012.7
20260905170223 38 321 0.0 1.6 0.00 0.00 0.00 42 1013.0
20260905165722 38 30 0.0 1.6 0.00 0.00 0.00 42 1013.0
20260905165223 37 56 0.0 8.0 0.00 0.00 0.00 43 1013.1
20260905164724 37 105 0.0 8.0 0.00 0.00 0.00 46 1013.2
20260905164223 37 77 0.0 4.8 0.00 0.00 0.00 44 1013.2
20260905163722 37 139 0.0 1.6 0.00 0.00 0.00 47 1013.3
20260905163223 37 139 0.0 3.2 0.00 0.00 0.00 47 1013.4
20260905162721 36 283 0.0 3.2 0.00 0.00 0.00 45 1013.5
20260905162218 36 250 0.0 3.2 0.00 0.00 0.00 46 1013.4
20260905161718 36 231 0.0 3.2 0.00 0.00 0.00 48 1013.5
20260905161217 36 92 0.0 3.2 0.00 0.00 0.00 48 1013.6
20260905160713 36 252 0.0 3.2 0.00 0.00 0.00 49 1013.6
20260905160218 35 252 0.0 0.0 0.00 0.00 0.00 50 1013.6
20260905160213 36 252 0.0 1.6 0.00 0.00 0.00 48 1013.6
20260905155212 35 252 0.0 0.0 0.00 0.00 0.00 49 1013.7
20260905154712 35 188 0.0 1.6 0.00 0.00 0.00 49 1013.8
20260905154214 35 188 0.0 1.6 0.00 0.00 0.00 50 1013.8
20260905153713 35 248 0.0 3.2 0.00 0.00 0.00 51 1013.8
20260905153212 34 249 0.0 3.2 0.00 0.00 0.00 52 1013.8
20260905152713 34 211 1.6 6.4 0.00 0.00 0.00 53 1013.9
20260905152212 34 234 1.6 6.4 0.00 0.00 0.00 51 1013.9
20260905151715 33 256 1.6 8.0 0.00 0.00 0.00 55 1013.9
20260905151214 33 158 3.2 8.0 0.00 0.00 0.00 53 1013.8
20260905150715 33 257 1.6 8.0 0.00 0.00 0.00 53 1013.9
20260905150711 33 243 3.2 8.0 0.00 0.00 0.00 54 1013.8
20260905145708 33 239 0.0 3.2 0.00 0.00 0.00 55 1013.9
20260905145208 33 138 0.0 0.0 0.00 0.00 0.00 55 1013.9
20260905144714 33 238 0.0 4.8 0.00 0.00 0.00 58 1014.0
20260905144708 33 238 0.0 0.0 0.00 0.00 0.00 57 1014.0
20260905143708 32 238 0.0 4.8 0.00 0.00 0.00 58 1014.0
20260905143206 32 234 0.0 3.2 0.00 0.00 0.00 60 1014.1
20260905142706 32 239 0.0 3.2 0.00 0.00 0.00 61 1014.1
20260905142211 31 213 0.0 4.8 0.00 0.00 0.00 67 1014.1
20260905142206 32 245 0.0 3.2 0.00 0.00 0.00 63 1014.1
20260905141706 32 245 0.0 0.0 0.00 0.00 0.00 63 1014.1
20260905141324 31 213 0.0 4.8 0.00 0.00 0.00 65 1014.3
20260905140205 31 180 0.0 1.6 0.00 0.00 0.00 65 1014.2
20260905135705 31 225 0.0 1.6 0.00 0.00 0.00 67 1014.3
20260905135205 30 242 0.0 0.0 0.00 0.00 0.00 69 1014.3
20260905134704 30 242 0.0 0.0 0.00 0.00 0.00 69 1014.3
20260905134204 30 242 0.0 3.2 0.00 0.00 0.00 69 1014.4
20260905133704 30 242 0.0 3.2 0.00 0.00 0.00 70 1014.4
20260905133205 30 221 0.0 0.0 0.00 0.00 0.00 72 1014.5
20260905132705 29 240 0.0 0.0 0.00 0.00 0.00 72 1014.4
20260905132202 29 240 0.0 0.0 0.00 0.00 0.00 73 1014.4
20260905131702 28 240 0.0 0.0 0.00 0.00 0.00 75 1014.4
20260905131202 28 240 0.0 0.0 0.00 0.00 0.00 75 1014.5
20260905130704 28 240 0.0 0.0 0.00 0.00 0.00 75 1014.5
20260905130203 28 240 0.0 0.0 0.00 0.00 0.00 78 1014.5
20260905125707 27 240 0.0 0.0 0.00 0.00 0.00 79 1014.3
20260905125703 27 240 0.0 0.0 0.00 0.00 0.00 79 1014.4
20260905124704 27 240 0.0 0.0 0.00 0.00 0.00 80 1014.2
20260905124203 26 240 0.0 1.6 0.00 0.00 0.00 82 1014.3
20260905123706 26 240 0.0 1.6 0.00 0.00 0.00 83 1014.3
20260905123702 26 240 0.0 1.6 0.00 0.00 0.00 82 1014.2
20260905123320 25 240 0.0 1.6 0.00 0.00 0.00 84 1014.2
20260905122201 25 240 0.0 0.0 0.00 0.00 0.00 86 1014.2
20260905121705 24 240 0.0 0.0 0.00 0.00 0.00 88 1014.3
20260905121701 24 240 0.0 0.0 0.00 0.00 0.00 88 1014.3
20260905120706 23 240 0.0 0.0 0.00 0.00 0.00 89 1014.2
20260905120701 23 240 0.0 0.0 0.00 0.00 0.00 89 1014.2
20260905115701 23 240 0.0 0.0 0.00 0.00 0.00 89 1014.2
20260905115201 23 240 0.0 0.0 0.00 0.00 0.00 89 1014.2
20260905114701 23 240 0.0 0.0 0.00 0.00 0.00 89 1014.1
20260905114158 23 240 0.0 0.0 0.00 0.00 0.00 89 1014.0
20260905113658 23 240 0.0 0.0 0.00 0.00 0.00 89 1014.0
20260905113157 23 240 0.0 0.0 0.00 0.00 0.00 89 1013.9
20260905112658 23 240 0.0 0.0 0.00 0.00 0.00 89 1013.8
20260905112159 23 240 0.0 0.0 0.00 0.00 0.00 89 1013.8
20260905111659 23 240 0.0 0.0 0.00 0.00 0.00 89 1013.7
20260905111159 23 240 0.0 0.0 0.00 0.00 0.00 90 1013.6
20260905110657 23 240 0.0 0.0 0.00 0.00 0.00 90 1013.5
20260905110159 23 240 0.0 0.0 0.00 0.00 0.00 89 1013.5
20260905105659 23 240 0.0 0.0 0.00 0.00 0.00 89 1013.4
20260905105203 23 240 0.0 0.0 0.00 0.00 0.00 89 1013.4
20260905105159 23 240 0.0 0.0 0.00 0.00 0.00 89 1013.4
20260905104158 23 240 0.0 0.0 0.00 0.00 0.00 89 1013.3
20260905103659 23 240 0.0 0.0 0.00 0.00 0.00 89 1013.2
20260905103159 23 240 0.0 0.0 0.00 0.00 0.00 89 1013.2
20260905102659 23 240 0.0 0.0 0.00 0.00 0.00 88 1013.1
20260905102158 23 240 0.0 0.0 0.00 0.00 0.00 88 1013.1
20260905101706 23 240 0.0 0.0 0.00 0.00 0.00 87 1013.0
20260905101658 23 240 0.0 0.0 0.00 0.00 0.00 88 1013.0
20260905101159 23 240 0.0 0.0 0.00 0.00 0.00 87 1013.0
20260905100157 23 240 0.0 0.0 0.00 0.00 0.00 87 1012.9
20260905095657 23 240 0.0 0.0 0.00 0.00 0.00 87 1012.9
20260905095157 23 240 0.0 0.0 0.00 0.00 0.00 87 1013.0
20260905094658 23 240 0.0 0.0 0.00 0.00 0.00 86 1013.0
20260905094156 23 240 0.0 0.0 0.00 0.00 0.00 86 1013.0
20260905093657 23 240 0.0 0.0 0.00 0.00 0.00 85 1012.9
20260905093155 23 240 0.0 0.0 0.00 0.00 0.00 86 1012.9
20260905092657 23 240 0.0 1.6 0.00 0.00 0.00 86 1013.0
20260905092155 23 240 0.0 1.6 0.00 0.00 0.00 86 1013.0
20260905091654 23 240 0.0 0.0 0.00 0.00 0.00 87 1013.0
20260905091155 23 240 0.0 0.0 0.00 0.00 0.00 87 1013.1
20260905090655 23 240 0.0 0.0 0.00 0.00 0.00 87 1013.1
20260905090159 23 240 0.0 1.6 0.00 0.00 0.00 88 1013.1
20260905090155 23 240 0.0 1.6 0.00 0.00 0.00 87 1013.0
20260905085154 23 240 0.0 1.6 0.00 0.00 0.00 89 1013.2
20260905084654 23 148 0.0 0.0 0.00 0.00 0.00 88 1013.2
20260905084155 23 148 0.0 0.0 0.00 0.00 0.00 88 1013.3
20260905083700 23 148 0.0 0.0 0.00 0.00 0.00 87 1013.4
20260905083655 23 148 0.0 0.0 0.00 0.00 0.00 88 1013.3
20260905082651 23 148 0.0 0.0 0.00 0.00 0.00 87 1013.4
20260905082153 23 148 0.0 0.0 0.00 0.00 0.00 87 1013.4
20260905081652 23 148 0.0 0.0 0.00 0.00 0.00 87 1013.4
20260905081152 23 148 0.0 0.0 0.00 0.00 0.00 87 1013.4
20260905080651 23 148 0.0 0.0 0.00 0.00 0.00 87 1013.5
20260905080157 23 148 0.0 0.0 0.00 0.00 0.00 87 1013.5
20260905080151 23 148 0.0 0.0 0.00 0.00 0.00 87 1013.4
20260905075153 23 148 0.0 0.0 0.00 0.00 0.00 87 1013.6
20260905074650 23 148 0.0 0.0 0.00 0.00 0.00 87 1013.6
20260905074151 23 148 0.0 0.0 0.00 0.00 0.00 87 1013.6
20260905073650 23 148 0.0 0.0 0.00 0.00 0.00 86 1013.8
20260905073150 23 148 0.0 0.0 0.00 0.00 0.00 86 1013.8
20260905072650 23 148 0.0 0.0 0.00 0.00 0.00 86 1013.8
20260905072150 23 148 0.0 0.0 0.00 0.00 0.00 86 1013.8
20260905071650 23 148 0.0 0.0 0.00 0.00 0.00 86 1013.9
20260905071150 23 148 0.0 0.0 0.00 0.00 0.00 86 1013.9
20260905070651 23 148 0.0 0.0 0.00 0.00 0.00 86 1013.9
20260905070149 24 148 0.0 0.0 0.00 0.00 0.00 86 1013.9
20260905065650 24 148 0.0 0.0 0.00 0.00 0.00 86 1013.9
20260905065150 24 148 0.0 0.0 0.00 0.00 0.00 86 1013.9
20260905064650 24 148 0.0 0.0 0.00 0.00 0.00 86 1014.1
20260905064150 24 148 0.0 0.0 0.00 0.00 0.00 85 1014.0
20260905063649 24 148 0.0 0.0 0.00 0.00 0.00 85 1014.0
20260905063151 24 148 0.0 0.0 0.00 0.00 0.00 85 1014.0
20260905062650 24 148 0.0 0.0 0.00 0.00 0.00 85 1014.1
20260905062151 24 148 0.0 0.0 0.00 0.00 0.00 85 1014.1
20260905061650 24 148 0.0 0.0 0.00 0.00 0.00 84 1014.2
20260905061149 24 148 0.0 0.0 0.00 0.00 0.00 84 1014.2
20260905060655 25 148 0.0 0.0 0.00 0.00 0.00 84 1014.4
20260905060651 25 148 0.0 0.0 0.00 0.00 0.00 84 1014.2
20260905055649 25 148 0.0 0.0 0.00 0.00 0.00 83 1014.3
20260905055155 25 148 0.0 0.0 0.00 0.00 0.00 82 1014.5
20260905055149 25 148 0.0 0.0 0.00 0.00 0.00 83 1014.4
20260905054149 25 148 0.0 0.0 0.00 0.00 0.00 83 1014.5
20260905053652 25 148 0.0 0.0 0.00 0.00 0.00 82 1014.6
20260905053646 25 148 0.0 0.0 0.00 0.00 0.00 83 1014.6
20260905052647 25 148 0.0 0.0 0.00 0.00 0.00 82 1014.5
20260905052147 25 148 0.0 0.0 0.00 0.00 0.00 82 1014.5
20260905051647 25 148 0.0 0.0 0.00 0.00 0.00 81 1014.6
20260905051152 25 148 0.0 0.0 0.00 0.00 0.00 82 1014.4
20260905051148 25 148 0.0 0.0 0.00 0.00 0.00 82 1014.5
20260905050148 25 148 0.0 0.0 0.00 0.00 0.00 82 1014.3
20260905045808 25 148 0.0 0.0 0.00 0.00 0.00 82 1014.4
20260905045650 25 148 0.0 0.0 0.00 0.00 0.00 82 1014.6
20260905045645 25 148 0.0 0.0 0.00 0.00 0.00 81 1014.5